www.pogodaiklimat.ru

Погода и климат >> Архив погоды >> Россия >> Татарстан >> Лаишево


ПОГОДА в Лаишево

  • Прогноз погоды в Лаишево
  • Монитор погоды в Лаишево

АРХИВ ПОГОДЫ в Лаишево

Время (UTC), дата Ветер
(напр.,м/с)
 
Видим.   Явления Облачность Т
(С)
Тd
(С)
f
(%)
Тe
(С)
Тes
(С)
Комфортность P
(гПа)
Po
(гПа)
Тmin
(С)
Tmax
(С)
R
(мм)
R24
(мм)
S
(см)
18 17.06 З 1 н/о н/о +17.5 +8.9 57 +19 +19 1009.3 994.3
21 17.06 З 2 н/о н/о +15.3 +8.9 66 +15 +15 1009.7 994.6
00 18.06 С 2 н/о н/о +13.1 +9.0 76 +12 +12 1010.3 995.0
03 18.06 СВ 2 н/о н/о +15.4 +9.1 66 +15 +15 1011.0 995.9 +12.5
06 18.06 В 3 н/о н/о +20.6 +7.1 42 +22 +22 комфорт 1011.2 996.3
09 18.06 ЮВ 3 н/о н/о +22.5 +10.3 46 +24 +24 комфорт 1010.9 996.1
12 18.06 ЮВ 3 н/о н/о +23.8 +10.1 42 +25 +25 комфорт 1009.8 995.1
15 18.06 В 1 н/о н/о +23.0 +11.4 48 +25 +25 комфорт 1008.9 994.2 +24.2
18 18.06 В 2 н/о н/о +16.7 +11.9 73 +17 +17 1009.1 994.1
00 19.06 ЮВ 1 н/о н/о +16.4 +13.7 84 +17 +17 1008.4 993.4
03 19.06 З 2 н/о н/о +17.9 +14.0 78 +18 +18 1008.9 994.0 +15.3
06 19.06 З 2 н/о н/о +22.1 +13.9 60 +25 +25 комфорт 1009.0 994.3
09 19.06 З 3 н/о н/о +24.8 +13.6 50 +27 +27 жарко 1009.2 994.6
12 19.06 З 2 н/о н/о +21.1 +12.5 58 +23 +23 комфорт 1010.0 995.2
15 19.06 З 2 н/о н/о +24.7 +10.2 40 +26 +26 жарко 1010.1 995.5 +26.0
18 19.06 З 2 н/о н/о +18.9 +13.9 73 +20 +20 1011.2 996.2
21 19.06 З 1 н/о н/о +17.3 +12.7 74 +18 +18 1011.9 996.9
00 20.06 З 1 н/о н/о +15.2 +12.4 83 +16 +16 1012.7 997.5
03 20.06 З 2 н/о н/о +18.9 +13.7 72 +20 +20 1013.4 998.4 +14.6
06 20.06 З 2 н/о н/о +25.0 +14.5 52 +28 +28 жарко 1013.8 999.1
09 20.06 З 3 н/о н/о +27.7 +9.9 33 +28 +28 жарко 1013.3 998.7
12 20.06 З 2 н/о н/о +28.2 +9.9 32 +28 +28 жарко 1012.7 998.2
15 20.06 З 3 н/о н/о +27.2 +9.0 32 +27 +27 жарко 1012.6 998.0 +28.6
18 20.06 СЗ 1 н/о н/о +22.1 +9.3 44 +24 +24 комфорт 1014.1 999.3
21 20.06 З 2 н/о н/о +18.4 +9.8 57 +19 +19 1015.1 1000.0
00 21.06 СЗ 1 н/о н/о +16.0 +10.4 69 +17 +17 1015.9 1000.7
03 21.06 СЗ 1 н/о н/о +21.1 +13.0 60 +23 +23 комфорт 1017.1 1002.2 +14.8
06 21.06 СЗ 2 н/о н/о +24.8 +12.9 48 +27 +27 жарко 1017.6 1002.9
09 21.06 СЗ 3 н/о н/о +27.2 +9.1 32 +27 +27 жарко 1017.6 1003.0
12 21.06 Ю 2 н/о н/о +27.5 +11.7 37 +28 +28 жарко 1017.4 1002.8
15 21.06 ЮВ 1 н/о н/о +26.4 +12.0 41 +28 +28 жарко 1017.2 1002.5 +28.4
18 21.06 СВ 2 н/о н/о +18.1 +12.7 71 +19 +19 1018.2 1003.1
21 21.06 В 1 н/о н/о +17.4 +13.1 76 +18 +18 1018.6 1003.4
00 22.06 СВ 2 н/о н/о +15.2 +14.0 93 +15 +15 1018.9 1003.7
03 22.06 ЮВ 2 н/о н/о +20.7 +16.7 78 +25 +25 комфорт 1018.7 1003.8 +14.6
06 22.06 ЮВ 2 н/о н/о +23.1 +16.5 66 +28 +28 душно 1018.4 1003.6
09 22.06 Ю 5 н/о н/о +28.3 +12.4 37 +29 +29 жарко 1017.5 1003.0
12 22.06 Ю 4 н/о н/о +29.2 +11.8 34 +30 +30 жарко 1016.5 1002.0
15 22.06 Ю 4 н/о н/о +27.9 +12.5 39 +29 +29 жарко 1015.1 1000.6 +29.5
18 22.06 Ю 3 н/о н/о +23.4 +13.1 52 +26 +26 жарко 1015.0 1000.2
21 22.06 Ю 2 н/о н/о +20.2 +13.6 66 +23 +23 комфорт 1014.8 999.9
00 23.06 ЮЗ 2 н/о н/о +21.6 +12.7 57 +24 +24 комфорт 1014.5 999.7
03 23.06 З 2 н/о н/о +22.5 +14.8 62 +26 +26 жарко 1014.8 1000.0 +19.4
06 23.06 ЮЗ 4 н/о н/о +26.9 +16.2 52 +30 +30 душно 1014.9 1000.3
09 23.06 ЮЗ 4 н/о н/о +31.5 +15.8 39 +34 +34 душно 1014.5 1000.2
12 23.06 З 3 н/о н/о +31.0 +15.0 38 +33 +33 душно 1014.3 999.9
15 23.06 З 2 н/о н/о +28.9 +16.2 46 +32 +32 душно 1014.1 999.6 +31.6
18 23.06 СЗ 1 н/о н/о +23.6 +15.7 61 +27 +27 жарко 1015.0 1000.3
21 23.06 С 2 н/о н/о +20.8 +15.2 70 +24 +24 комфорт 1015.7 1000.8
00 24.06 СЗ 1 н/о н/о +18.8 +14.8 78 +21 +21 комфорт 1016.4 1001.4
03 24.06 С 1 н/о н/о +23.6 +15.1 59 +26 +26 жарко 1016.4 1001.7 +18.2
06 24.06 З 1 н/о н/о +26.6 +14.3 47 +29 +29 жарко 1016.3 1001.7
09 24.06 З 2 н/о н/о +24.3 +13.7 52 +27 +27 жарко 1016.5 1001.8
12 24.06 СЗ 1 н/о н/о +20.5 +15.0 71 +24 +24 комфорт 1016.5 1001.6
15 24.06 СЗ 1 н/о н/о +21.7 +9.5 46 +23 +23 комфорт 1016.3 1001.4 +27.5 1

 

Местоположение метеостанции Лаишево (Татарстан, Россия): широта 55.42 долгота 49.53 высота над уровнем моря 129 м.

В архиве по умолчанию представлена погода в Лаишево за последнюю неделю. Архивные данные за месяц целиком и за предыдущие месяцы, начиная с января 2011 года, Вы можете получить, выбрав интересующий диапазон дат из раскрывающегося списка и нажав кнопку "Ввод!".


*Определитесь, кто Вы:
робот инопланетянин человек

Внимание! Время в таблицах - всемирное. Для получения местного времени необходимо прибавить поправку, которая равна 3 ч.

Смотрите также архив погоды в соседних городах и на ближайших метеорологических станциях:

Погода в Камском Устье (Татарстан, Россия) (29 км)
Погода в Алексеевском (Татарстан, Россия) (38 км)
Погода в Казани (Татарстан, Россия) (40 км)
Погода в Тетюшах (Татарстан, Россия) (71 км)
Погода в Чистополе (Татарстан, Россия) (72 км)
Погода в Арске (Татарстан, Россия) (76 км)
Погода в Вязовых (Татарстан, Россия) (77 км)
Погода в Больших Кайбицах (Татарстан, Россия) (85 км)
Погода в Богатых Сабах (Татарстан, Россия) (88 км)
Погода в Аксубаево (Татарстан, Россия) (103 км)

Пояснения к столбцам:

Ветер - указаны скорость ветра в м/с - средняя за 10 мин, порывы в срок и между сроками (в фигурных скобках) и направление, откуда дует ветер: С - северный, СВ - северо-восточный, В - восточный, ЮВ - юго-восточный, Ю - южный, ЮЗ - юго-западный, З - западный, СЗ - северо-западный.
Видимость - горизонтальная дальность видимости в метрах или километрах. При видимости от 1 до 10 км при отсутствии осадков обычно наблюдается дымка, при ухудшении видимости до 1 км и менее - туман. В сухую погоду видимость может ухудшаться дымом, пылью или мглою.
Явления - указаны атмосферные явления, наблюдавшиеся в срок или в последний час перед сроком; фигурными скобками обозначены явления, наблюдавшиеся между сроками (за 1-3 часа до срока); квадратными скобками обозначены град или гололедные отложения с указанием их диаметра в мм.
Облачность - указаны через наклонную черту общая и нижняя облачность в баллах и высота нижней границы облаков в метрах; квадратными скобками обозначены формы облаков: Ci - перистые, Cs - перисто-слоистые, Cc - перисто-кучевые, Ac - высококучевые, As - высокослоистые, Sc - слоисто-кучевые, Ns - слоисто-дождевые, Cu - кучевые, Cb - кучево-дождевые. Подробнее классификацию облаков см. в Атласе облаков (PDF).
T - Температура воздуха - температура, измеренная на высоте 2 м над землей.
Td - Температура точки росы - температура, при понижении до которой содержащийся в воздухе водяной пар достигнет насыщения.
f - Относительная влажность воздуха - влажноcть воздуха, измеренная на высоте 2 м над землей.
Te - Эффективная температура - температура, которую ощущает одетый по сезону человек в тени. Характеристика душности погоды. При расчете учитывается влияние влажности воздуха и скорости ветра на теплоощущения человека.
Tes - Эффективная температура на солнце - температура, которую ощущает человек, с поправкой на солнечный нагрев. Характеристика знойности погоды. Зависит от высоты солнца над горизонтом, облачности и скорости ветра. Ночью, в пасмурную погоду, а также при ветре 12 м/с и более поправка равна нулю.
P - Атмосферное давление - приведенное к уровню моря атмосферное давление.
Po - Атмосферное давление - измеренное на уровне метеостанции атмосферное давление.
Tmin - Минимальная температура - минимум температуры воздуха на высоте 2 м над землей.
Tmax - Максимальная температура - максимум температуры воздуха на высоте 2 м над землей.
R - Количество осадков - Количество выпавших осадков за период времени, мм. При наведении курсора мыши на число - период времени, за который выпало указанное количество осадков.
R24 - Количество осадков - Количество выпавших осадков за 24 часа, мм.
S - Снежный покров - Высота снежного покрова, см. При наведении курсора мыши на число - состояние снежного покрова и степень покрытия местности в баллах.